Regional Weather Roundup
Issued by NWS Little Rock, AR

Home | Current Version | Previous Version | Text Only | Print | Product List | Glossary Off
Versions: 1 2 3 4 5 6 7 8 9 10 11 12 13 14 15 16 17 18 19 20 21 22 23 24 25 26 27 28 29 30 31 32 33 34 35 36 37 38 39 40 41 42 43 44 45 46 47 48 49 50

119
ASUS44 KLZK 241205
RWRLZK

WEATHER ROUNDUP FOR ARKANSAS
NATIONAL WEATHER SERVICE LITTLE ROCK AR
700 AM CDT SUN SEP 24 2017

NOTE: "FAIR" INDICATES FEW OR NO CLOUDS BELOW 12,000 FEET WITH NO
SIGNIFICANT WEATHER AND/OR OBSTRUCTIONS TO VISIBILITY.

ARZ001-003-010-029-241300-
NORTHWEST ARKANSAS

CITY           SKY/WX    TMP DP  RH WIND       PRES   REMARKS
FAYETTEVILLE   CLEAR     61  61 100 CALM      30.00S FOG
6HR MIN TEMP:  60; 6HR MAX TEMP:  65;

FORT SMITH     CLEAR     70  68  93 E6        29.95S
6HR MIN TEMP:  69; 6HR MAX TEMP:  76;

HARRISON       CLEAR     66  65  96 SE3       30.03R
6HR MIN TEMP:  65; 6HR MAX TEMP:  70;

ROGERS         CLEAR     68  67  96 SE6       30.02R
6HR MIN TEMP:  68; 6HR MAX TEMP:  72;

SILOAM SPGS    CLEAR     67  64  90 CALM      30.00R
6HR MIN TEMP:  66; 6HR MAX TEMP:  71;

HIGHFILL       CLEAR     66  64  93 CALM      30.00S
6HR MIN TEMP:  65; 6HR MAX TEMP:  71;

$$

ARZ004-005-016-241300-
NORTH CENTRAL ARKANSAS

CITY           SKY/WX    TMP DP  RH WIND       PRES   REMARKS
BATESVILLE     CLEAR     67  66  97 CALM      30.01R FOG
6HR MIN TEMP:  66; 6HR MAX TEMP:  71;

FLIPPIN        CLEAR     65  63  93 CALM      30.02R
6HR MIN TEMP:  65; 6HR MAX TEMP:  70;

MTN HOME       CLEAR     67  67 100 E3        30.01R
6HR MIN TEMP:  67; 6HR MAX TEMP:  72;

$$

ARZ040-041-241300-
WEST CENTRAL ARKANSAS

CITY           SKY/WX    TMP DP  RH WIND       PRES   REMARKS
MENA           CLEAR     64  63  94 CALM      29.99S
MOUNT IDA      CLEAR     65  64  97 CALM      29.96R FOG
6HR MIN TEMP:  65; 6HR MAX TEMP:  69;

$$

ARZ009-017-025-026-028-241300-
NORTHEAST ARKANSAS

CITY           SKY/WX    TMP DP  RH WIND       PRES   REMARKS
CORNING        FAIR      68  68 100 NE7       30.02R
JONESBORO      CLEAR     69  69 100 NE3       30.01R
6HR MIN TEMP:  68; 6HR MAX TEMP:  71;

NEWPORT        CLEAR     66  65  96 CALM      30.01R FOG
6HR MIN TEMP:  66; 6HR MAX TEMP:  71;

BLYTHEVILLE    CLEAR     69  68  96 E6        30.02R
6HR MIN TEMP:  68; 6HR MAX TEMP:  73;

$$

ARZ022-023-033-042-044-241300-
CENTRAL ARKANSAS

CITY           SKY/WX    TMP DP  RH WIND       PRES   REMARKS
LITTLE ROCK    PTCLDY    70  70 100 CALM      29.98R
6HR MIN TEMP:  69; 6HR MAX TEMP:  76;

N LITTLE ROCK    N/A     71  68  90 CALM      29.98R
6HR MIN TEMP:  71; 6HR MAX TEMP:  77;

JACKSONVILLE   PTCLDY    68  68  99 CALM      29.98R
6HR MIN TEMP:  68; 6HR MAX TEMP:  72;

CONWAY           N/A     68  66  94 N3        29.96S
SEARCY         CLEAR     69  69 100 NE5       30.01R
6HR MIN TEMP:  68; 6HR MAX TEMP:  71;

HOT SPRINGS    CLEAR     71  68  90 CALM      29.98R
6HR MIN TEMP:  71; 6HR MAX TEMP:  76;

RUSSELLVILLE   CLEAR     68  67  96 CALM      29.97R
6HR MIN TEMP:  68; 6HR MAX TEMP:  72;

CLINTON        FAIR      64  64 100 CALM      30.01R FOG
$$

ARZ036-241300-
EAST ARKANSAS

CITY           SKY/WX    TMP DP  RH WIND       PRES   REMARKS
WEST MEMPHIS   CLEAR     69  69 100 CALM      30.00R
6HR MIN TEMP:  68; 6HR MAX TEMP:  73;

$$

ARZ050-053-066-070-073-241300-
SOUTHWEST ARKANSAS

CITY           SKY/WX    TMP DP  RH WIND       PRES   REMARKS
ARKADELPHIA    FAIR      65  65 100 CALM      29.97R
6HR MIN TEMP:  65; 6HR MAX TEMP:  70;

CAMDEN         CLEAR     66  64  94 CALM      29.95S FOG
TEXARKANA      CLEAR     67  67 100 E5        29.95R
6HR MIN TEMP:  67; 6HR MAX TEMP:  75;

EL DORADO      CLEAR     67  66  97 CALM      29.96R
6HR MIN TEMP:  67; 6HR MAX TEMP:  72;

DE QUEEN       CLEAR     68  68 100 CALM      29.93S FOG
6HR MIN TEMP:  66; 6HR MAX TEMP:  71;

$$

ARZ056-057-069-241300-
SOUTHEAST ARKANSAS

CITY           SKY/WX    TMP DP  RH WIND       PRES   REMARKS
PINE BLUFF     PTCLDY    67  66  97 E3        29.98R FOG
6HR MIN TEMP:  67; 6HR MAX TEMP:  74;

STUTTGART      CLEAR     69  67  93 CALM      29.99R
6HR MIN TEMP:  69; 6HR MAX TEMP:  76;

MONTICELLO     CLEAR     69  66  90 CALM      29.98R
6HR MIN TEMP:  68; 6HR MAX TEMP:  76;


$$






USA.gov is the U.S. government's official web portal to all federal, state and local government web resources and services.